Probability
0 0 0 0 0 0 0 0 0 0 0 0 0 0 0 0 0 0 0 0 0 0 0 0 0 0 0 0 0 0 0 0 0 0 0 0 0 0 0 0 0 0 0 0
0 0 0 0 0 0 0 0 0 0 0 0 0 0 0 0 0 0 0 0 0 0 0 0 0 0 0 0 0 0 0 0 0 0 0 0 0 0 0 0 0 0 0 0
0 0 0 0 0 0 0 0 0 0 0 0 0 0 0 0 0 0 0 0 0 0 0 0 0 0 0 0 0 0 0 0 0 0 0 0 0 0 0 0 0 0 0 0
0 0 0 0 0 0 0 0 0 0 0 0 0 0 0 0 0 0 0 0 0 0 0 0 0 0 0 0 0 0 0 0 0 0 0 0 0 0 0 0 0 0 0 0
0 0 0 0 0 0 0 0 0 0 0 0 0 0 0 0 0 0 0 0 0 0 0 0 0 0 0 0 0 0 0 0 0 0 0 0 0 0 0 0 0 0 0 0
0 0 0 0 0 0 0 0 0 0 0 0 0 0 0 0 0 0 0 0 0 0 0 0 0 0 0 0 0 0 0 0 0 0 0 0 0 0 0 0 0 0 0 0
0 0 0 0 0 0 0 0 0 0 0 0 0 0 0 0 0 0 0 0 0 0 0 0 0 0 0 0 0 0 0 0 0 0 0 0 0 0 0 0 0 0 0 0
0 0 0 0 0 0 0 0 0 0 0 0 0 0 0 0 0 0 0 0 0 0 0 0 0 0 0 0 0 0 0 0 0 0 0 0 0 0 0 0 0 0 0 0
0 0 0 0 0 0 0 0 0 0 0 0 0 0 0 0 0 0 0 0 0 0 0 0 0 0 0 0 0 0 0 0 0 0 0 0 0 0 0 0 0 0 0 0
0 0 0 0 0 0 0 0 0 0 0 0 0 0 0 0 0 0 0 0 0 0 0 0 0 0 0 0 0 0 0 0 0 0 0 0 0 0 0 0 0 0 0 0
0 0 0 0 0 0 0 0 0 0 0 0 0 0 0 0 0 0 0 0 0 0 0 0 0 0 0 0 0 0 0 0 0 0 0 0 0 0 0 0 0 0 0 0
0 0 0 0 0 0 0 0 0 0 0 0 0 0 0 0 0 0 0 0 0 0 0 0 0 0 0 0 0 0 0 0 0 0 0 0 0 0 0 0 0 0 0 0
0 0 0 0 0 0 0 0 0 0 0 0 0 0 0 0 0 0 0 0 0 0 0 0 0 0 0 0 0 0 0 0 0 0 0 0 0 0 0 0 0 0 0 0
0 0 0 0 0 0 0 0 0 0 0 0 0 0 0 0 0 0 0 0 0 0 0 0 0 0 0 0 0 0 0 0 0 0 0 0 0 0 0 0 0 0 0 0
0 0 0 0 0 0 0 0 0 0 0 0 0 0 0 0 0 0 0 0 0 0 0 0 0 0 0 0 0 0 0 0 0 0 0 0 0 0 0 0 0 0 0 0
0 0 0 0 0 0 0 0 0 0 0 0 0 0 0 0 0 0 0 0 0 0 0 0 0 0 0 0 0 0 0 0 0 0 0 0 0 0 0 0 0 0 0 0
0 0 0 0 0 0 0 0 0 0 0 0 0 0 0 0 0 0 0 0 0 0 0 0 0 0 0 0 0 0 0 0 0 0 0 0 0 0 0 0 0 0 0 0
0 0 0 0 0 0 0 0 0 0 0 0 0 0 0 0 0 0 0 0 0 0 0 0 0 0 0 0 0 0 0 0 0 0 0 0 0 0 0 0 0 0 0 0
0 0 0 0 0 0 0 0 0 0 0 0 0 0 0 0 0 0 0 0 0 0 0 0 0 0 0 0 0 0 0 0 0 0 0 0 0 0 0 0 0 0 0 0
0 0 0 0 0 0 0 0 0 0 0 0 0 0 0 0 0 0 0 0 0 0 0 0 0 0 0 0 0 0 0 0 0 0 0 0 0 0 0 0 0 0 0 0
0 0 0 0 0 0 0 0 0 0 0 0 0 0 0 0 0 0 0 0 0 0 0 0 0 0 0 0 0 0 0 0 0 0 0 0 0 0 0 0 0 0 0 0
0 0 0 0 0 0 0 0 0 0 0 0 0 0 0 0 0 0 0 0 0 0 0 0 0 0 0 0 0 0 0 0 0 0 0 0 0 0 0 0 0 0 0 0
0 0 0 0 0 0 0 0 0 0 0 0 0 0 0 0 0 0 0 0 0 0 0 0 0 0 0 0 0 0 0 0 0 0 0 0 0 0 0 0 0 0 0 0
0 0 0 0 0 0 0 0 0 0 0 0 0 0 0 0 0 0 0 0 0 0 0 0 0 0 0 0 0 0 0 0 0 0 0 0 0 0 0 0 0 0 0 0
0 0 0 0 0 0 0 0 0 0 0 0 0 0 0 0 0 0 0 0 0 0 0 0 0 0 0 0 0 0 0 0 0 0 0 0 0 0 0 0 0 0 0 0
0 0 0 0 0 0 0 0 0 0 0 0 0 0 0 0 0 0 0 0 0 0 0 0 0 0 0 0 0 0 0 0 0 0 0 0 0 0 0 0 0 0 0 0
0 0 0 0 0 0 0 0 0 0 0 0 0 0 0 0 0 0 0 0 0 0 0 0 0 0 0 0 0 0 0 0 0 0 0 0 0 0 0 0 0 0 0 0
Wind_Speed
5 4 2 1 3 4 4 2 2 1 2 1 1 1 2 3 5 6 8 9 9 9 9 9 9 9 10 10 9 9 9 10 10 10 10 10 10 10 9 9 10 9 9 8
4 3 3 5 5 6 5 4 4 3 3 3 2 1 1 1 4 5 7 8 9 8 8 9 9 9 9 9 9 9 9 10 9 10 10 10 10 10 10 10 10 10 9 8
3 3 5 8 8 10 7 6 6 6 4 5 5 3 2 1 3 4 6 7 8 8 7 7 8 8 8 8 8 8 9 9 9 9 10 10 9 9 9 9 9 9 9 9
2 4 5 4 3 6 8 7 8 5 5 6 5 3 3 3 3 4 5 6 7 7 6 6 6 6 6 6 7 8 8 9 9 9 9 9 9 9 9 8 8 8 9 9
3 4 4 4 6 7 8 7 11 10 8 8 5 5 6 4 3 3 4 5 5 6 6 5 5 6 5 6 7 7 8 8 8 9 9 9 9 9 8 7 8 8 8 9
4 5 3 3 8 7 6 6 11 13 11 10 9 6 4 4 3 2 3 4 5 5 5 5 5 4 4 5 6 7 6 7 7 7 8 8 8 8 7 6 7 7 8 8
7 6 5 5 10 10 7 0 11 14 13 12 11 3 5 4 3 2 2 3 4 3 4 4 4 4 4 5 6 6 5 5 6 6 7 7 7 6 6 6 7 7 7 8
6 7 4 11 12 10 4 5 10 13 13 12 9 6 5 4 3 2 1 2 3 3 3 3 3 3 4 5 4 4 4 4 5 6 6 5 6 7 7 7 7 7 7 7
7 4 4 13 9 7 3 6 9 12 12 12 11 9 7 6 4 3 1 1 2 2 2 2 2 3 4 4 3 3 3 4 4 5 5 5 6 6 6 6 6 6 6 6
7 9 8 12 11 8 8 7 9 12 13 13 12 10 9 7 5 4 3 1 1 2 1 2 2 2 3 3 1 2 3 3 3 4 4 5 5 5 6 6 6 6 6 5
9 7 6 11 15 14 11 9 9 12 13 14 12 11 10 8 7 5 3 2 2 1 1 0 1 2 2 2 1 2 2 3 3 3 3 3 4 5 5 6 6 6 5 5
7 7 7 6 12 17 15 14 13 14 14 13 12 11 10 8 7 6 5 4 3 2 2 1 1 2 2 2 2 1 1 2 1 1 1 1 2 3 4 4 5 6 7 6
4 2 5 2 5 15 17 16 15 15 15 14 13 11 10 8 7 7 6 6 5 3 3 2 2 2 3 3 3 2 1 2 1 1 1 1 0 1 2 4 4 4 5 6
8 5 6 7 7 12 16 16 15 15 15 14 13 12 10 9 8 8 8 7 6 5 4 4 3 3 3 4 4 4 2 2 2 2 1 1 0 1 1 2 1 2 4 4
13 13 8 5 7 11 13 15 15 16 16 15 13 12 12 11 10 9 8 7 6 6 6 5 5 4 4 4 5 4 4 3 3 2 2 2 2 1 1 1 1 1 1 4
11 13 11 10 10 12 15 17 17 17 17 16 15 14 13 12 10 9 8 8 8 8 7 6 6 5 5 5 5 4 4 3 3 4 4 4 3 3 2 2 1 0 0 1
11 13 15 16 15 15 17 18 17 17 17 17 16 15 13 12 11 10 10 9 9 7 6 6 6 5 6 6 5 4 4 5 7 6 5 4 4 4 3 3 2 1 1 1
14 14 14 15 15 16 16 17 17 17 17 17 16 15 15 14 14 12 11 10 9 9 8 8 7 6 7 7 5 4 4 5 5 5 4 4 4 4 4 4 3 3 2 4
14 14 13 13 13 14 15 15 16 16 16 16 16 16 16 15 14 12 11 11 11 10 9 8 7 8 8 7 5 5 5 5 6 5 5 5 5 6 5 5 4 4 4 4
11 12 12 12 12 12 12 13 14 14 15 15 16 16 16 15 14 12 12 11 10 8 7 7 9 9 8 7 7 6 6 6 6 6 5 5 6 6 6 5 5 5 5 5
10 10 11 11 11 11 11 11 12 13 14 15 16 16 15 15 14 12 11 10 10 9 8 8 8 7 7 6 8 6 6 6 6 6 6 6 6 6 6 6 6 6 6 6
10 8 9 9 9 9 9 10 11 12 13 14 15 15 14 14 13 12 12 9 7 8 8 8 8 8 7 7 7 7 6 6 6 6 6 6 6 6 6 6 6 6 6 6
11 9 7 7 7 8 7 8 10 10 12 13 14 14 14 12 10 10 10 9 7 10 8 7 7 9 10 9 8 8 8 8 7 6 6 6 6 6 6 7 6 6 6 6
13 11 9 7 5 5 5 6 6 7 8 9 10 11 11 9 8 8 7 6 8 10 8 7 10 11 11 8 8 8 8 7 7 7 6 6 6 6 6 6 6 6 7 8
14 13 12 10 6 4 4 3 3 4 5 5 7 7 7 6 6 6 6 7 8 9 7 8 11 12 10 9 9 8 8 7 7 6 6 6 6 6 7 6 7 7 7 7
13 11 10 10 9 7 6 4 2 1 2 3 3 3 4 4 4 4 4 6 9 8 7 6 8 10 9 9 9 8 8 7 7 8 8 7 8 8 7 7 9 7 7 7
11 10 9 9 9 9 8 6 5 4 2 1 1 1 2 3 3 4 5 5 5 6 6 6 6 7 7 7 8 8 8 7 7 7 7 7 7 7 7 9 7 7 7 7
Wind_Direction
91 104 151 189 196 208 244 291 281 163 202 167 95 21 358 352 358 7 13 14 13 11 15 16 18 20 21 21 21 20 24 27 26 27 31 32 32 32 34 35 36 38 40 41
153 169 224 243 224 217 226 227 224 211 214 169 169 204 251 2 3 4 8 8 8 9 13 13 15 15 18 20 23 24 29 29 27 27 30 31 32 33 35 35 35 36 37 37
180 181 250 246 218 208 211 208 210 215 177 165 190 201 229 326 341 352 358 359 1 4 7 6 10 9 14 17 19 26 32 32 28 29 30 31 33 34 33 37 38 36 35 37
233 220 249 88 112 200 216 217 213 216 179 187 196 197 228 257 295 329 350 350 355 357 360 0 7 7 13 19 23 29 30 30 29 28 31 32 33 33 32 35 38 36 35 36
253 262 265 171 185 192 209 227 209 206 194 188 186 213 212 206 251 302 327 333 337 341 344 352 4 1 7 22 29 32 28 25 25 27 30 32 32 31 31 33 38 39 39 38
241 267 259 125 152 174 209 238 192 196 190 183 189 210 156 156 206 267 307 324 332 334 341 358 10 359 5 25 31 33 28 26 27 29 31 33 33 30 32 37 40 45 45 40
240 259 265 126 148 170 213 91 162 184 186 185 197 191 114 152 194 255 303 323 326 331 349 360 359 354 11 27 35 36 34 36 33 33 37 34 33 35 38 43 45 47 50 48
216 234 243 145 164 201 224 107 167 180 183 186 189 172 166 187 201 230 284 329 334 337 0 8 3 359 31 42 46 49 53 52 45 38 34 36 37 35 38 38 44 46 47 49
222 247 67 176 195 207 203 181 178 179 181 183 186 188 192 198 202 212 258 316 333 336 349 27 40 13 35 63 70 76 74 66 57 55 49 39 36 37 38 38 38 38 40 41
249 248 221 209 215 209 208 201 184 182 179 184 188 190 192 196 198 202 220 251 291 297 342 55 59 55 52 83 117 105 86 77 72 64 58 53 38 33 35 29 31 35 33 34
244 248 218 218 216 209 202 201 188 185 184 187 190 191 192 195 197 199 202 209 235 267 334 49 104 113 103 122 163 139 113 105 91 77 60 52 56 37 28 44 26 13 21 22
231 215 206 203 200 200 197 197 192 186 187 190 194 193 194 197 193 196 200 202 207 207 223 213 167 148 141 164 214 202 136 118 108 107 96 61 69 101 83 53 59 44 27 12
254 187 209 166 188 193 197 196 193 192 190 189 194 197 197 195 192 196 201 208 209 204 214 213 199 187 166 180 211 224 195 165 165 181 165 173 33 19 97 140 144 93 57 39
218 196 203 206 198 193 196 195 193 195 195 194 193 194 197 197 195 200 206 205 206 208 212 212 209 196 181 192 207 218 209 180 205 202 221 228 257 333 359 3 72 117 116 86
212 214 222 205 193 188 193 192 194 197 196 195 193 193 195 199 200 204 204 202 206 212 212 210 211 199 188 203 215 215 209 203 206 211 219 227 231 245 261 287 337 39 115 131
208 210 219 216 204 193 192 195 199 200 197 196 195 198 199 202 204 202 199 201 209 212 209 211 212 199 193 209 218 219 211 200 231 227 221 221 224 234 243 254 268 270 288 93
201 204 208 213 210 202 200 201 204 203 200 200 200 200 198 199 201 202 202 204 215 222 217 218 215 200 203 217 223 226 222 197 204 232 233 233 235 239 242 247 256 255 213 109
230 228 216 212 207 204 204 205 208 208 205 202 200 199 199 201 205 206 205 203 209 219 222 222 215 207 210 218 226 234 228 223 217 226 228 230 237 238 240 241 242 241 218 169
242 239 232 223 216 209 206 205 207 208 206 201 200 202 203 206 209 209 204 202 209 217 218 212 200 215 214 209 220 227 233 230 227 226 229 220 231 238 235 237 237 234 228 213
258 244 236 226 216 213 209 205 204 206 204 201 201 204 206 208 209 209 206 208 214 219 211 192 195 211 216 204 203 229 230 232 234 233 230 233 235 237 235 234 237 236 229 224
279 257 240 229 219 214 212 206 201 203 201 201 204 205 207 208 206 207 208 216 219 215 208 192 208 212 212 198 200 227 230 233 234 237 235 234 238 240 239 235 232 234 234 229
306 284 258 240 227 218 213 210 205 203 199 199 205 207 207 208 205 207 212 221 219 181 192 200 210 209 200 195 214 222 228 234 237 238 240 241 243 244 243 241 238 235 234 233
330 317 297 268 246 234 217 211 208 205 202 200 202 205 208 208 205 205 213 210 207 186 197 206 200 184 184 207 221 222 226 231 236 238 239 242 243 244 247 246 243 239 236 233
347 342 332 317 290 257 232 219 212 207 204 203 205 206 206 205 206 212 221 178 182 182 202 199 189 189 198 219 222 225 228 230 234 240 241 242 244 244 244 244 244 241 238 236
357 355 355 350 340 326 306 273 219 204 200 198 196 197 205 208 206 195 195 193 182 188 203 195 196 199 208 219 222 225 229 230 233 237 240 243 244 246 247 244 243 244 241 238
357 357 357 359 359 349 342 335 319 252 198 189 183 182 187 189 197 189 187 191 190 195 206 198 192 199 214 219 223 228 232 229 223 228 237 242 245 244 246 247 248 246 245 243
350 352 352 355 359 357 352 351 351 352 346 316 209 168 176 176 179 186 190 189 188 194 202 205 205 208 213 215 220 225 229 233 234 234 236 238 241 244 246 248 249 249 247 246